Location: Lancaster
(34.6980°N, 118.1360°W)
Time: 23:58:57
(UTC-08:00)

Tiangong 2 - Pass Details

Date: 11 November 2017
Orbit: 386 x 392 km, 42.8° (Epoch: 24 November)

Event Time Altitude Azimuth Distance (km) Brightness Sun altitude
Rises 17:42:28 0° 300° (WNW) 2,273 5.7 -11.1°
Reaches altitude 10° 17:44:35 10° 306° (NW) 1,415 4.5 -11.5°
Maximum altitude 17:47:42 50° 23° (NNE) 501 1.4 -12.2°
Enters shadow 17:49:28 22° 91° (E) 903 2.3 -12.5°
